Previsão horária em Abla

Hoje, 12 Abril, Segunda-feira

Tempo Temperatura Precipitação Vento Pressão Humidade
00:00 +8°C° 0 mm 1 m/s 623 mmHg 72%
01:00 +7°C° 0 mm 1 m/s 623 mmHg 73%
02:00 +7°C° 0 mm 1 m/s 623 mmHg 74%
03:00 +6°C° 0 mm 1 m/s 622 mmHg 75%
04:00 +6°C° 0 mm 1 m/s 623 mmHg 76%
05:00 +6°C° 0 mm 1 m/s 623 mmHg 78%
06:00 +6°C° 0 mm 1 m/s 623 mmHg 78%
07:00 +6°C° 0 mm 2 m/s 624 mmHg 75%
08:00 +7°C° 0 mm 2 m/s 624 mmHg 72%
09:00 +8°C° 0 mm 3 m/s 625 mmHg 69%
10:00 +9°C° 0 mm 3 m/s 625 mmHg 66%
11:00 +9°C° 0 mm 3 m/s 626 mmHg 64%
12:00 +10°C° 0 mm 4 m/s 626 mmHg 63%
13:00 +8°C° 0 mm 4 m/s 626 mmHg 64%
14:00 +9°C° 0 mm 3 m/s 626 mmHg 66%
15:00 +9°C° 0 mm 3 m/s 625 mmHg 67%
16:00 +9°C° 0 mm 3 m/s 625 mmHg 69%
17:00 +8°C° 0 mm 3 m/s 625 mmHg 72%
18:00 +8°C° 0 mm 2 m/s 625 mmHg 74%
19:00 +7°C° 0 mm 2 m/s 625 mmHg 77%
20:00 +7°C° 0 mm 2 m/s 626 mmHg 80%
21:00 +6°C° 0 mm 2 m/s 626 mmHg 83%
22:00 +7°C° 0 mm 1 m/s 626 mmHg 84%
23:00 +7°C° 0 mm 1 m/s 625 mmHg 85%

Amanhã, 13 Abril, Terça-feira

Tempo Temperatura Precipitação Vento Pressão Humidade
00:00 +6°C° 0 mm 1 m/s 625 mmHg 86%
01:00 +6°C° 0 mm 1 m/s 625 mmHg 87%
02:00 +6°C° 0 mm 1 m/s 625 mmHg 89%
03:00 +5°C° 0 mm 1 m/s 624 mmHg 90%
04:00 +5°C° 0 mm 1 m/s 624 mmHg 89%
05:00 +5°C° 0 mm 1 m/s 624 mmHg 89%
06:00 +5°C° 0 mm 1 m/s 624 mmHg 88%
07:00 +6°C° 0 mm 1 m/s 625 mmHg 80%
08:00 +8°C° 0 mm 1 m/s 625 mmHg 72%
09:00 +8°C° 0 mm 2 m/s 626 mmHg 64%
10:00 +9°C° 0 mm 2 m/s 626 mmHg 60%
11:00 +10°C° 0 mm 2 m/s 626 mmHg 55%
12:00 +13°C° 0 mm 2 m/s 627 mmHg 51%
13:00 +12°C° 0 mm 3 m/s 626 mmHg 50%
14:00 +12°C° 0 mm 3 m/s 626 mmHg 49%
15:00 +13°C° 0 mm 3 m/s 626 mmHg 48%
16:00 +12°C° 0 mm 3 m/s 625 mmHg 51%
17:00 +13°C° 0 mm 2 m/s 625 mmHg 53%
18:00 +12°C° 0 mm 2 m/s 625 mmHg 56%
19:00 +10°C° 0 mm 2 m/s 625 mmHg 61%
20:00 +9°C° 0 mm 2 m/s 625 mmHg 66%
21:00 +9°C° 0 mm 1 m/s 625 mmHg 71%
22:00 +7°C° 0 mm 2 m/s 624 mmHg 73%
23:00 +7°C° 0 mm 2 m/s 624 mmHg 74%

Depois de amanhã, 14 Abril, Quarta-feira

Tempo Temperatura Precipitação Vento Pressão Humidade
00:00 +7°C° 0 mm 2 m/s 624 mmHg 75%
01:00 +7°C° 0 mm 2 m/s 623 mmHg 73%
02:00 +7°C° 0 mm 2 m/s 623 mmHg 71%
03:00 +6°C° 0 mm 2 m/s 622 mmHg 69%
04:00 +7°C° 0 mm 2 m/s 622 mmHg 65%
05:00 +7°C° 0 mm 2 m/s 622 mmHg 60%
06:00 +7°C° 0 mm 2 m/s 622 mmHg 56%
07:00 +8°C° 0 mm 2 m/s 623 mmHg 50%
08:00 +9°C° 0 mm 2 m/s 623 mmHg 45%
09:00 +9°C° 0 mm 3 m/s 623 mmHg 39%
10:00 +9°C° 0.3 mm 3 m/s 623 mmHg 45%
11:00 +8°C° 0.3 mm 3 m/s 623 mmHg 51%
12:00 +8°C° 0.3 mm 3 m/s 622 mmHg 57%
13:00 +7°C° 1.2 mm 2 m/s 622 mmHg 66%
14:00 +6°C° 1.2 mm 2 m/s 621 mmHg 76%
15:00 +7°C° 1.2 mm 1 m/s 621 mmHg 85%
16:00 +7°C° 1.7 mm 1 m/s 621 mmHg 87%
17:00 +7°C° 1.7 mm 1 m/s 621 mmHg 89%
18:00 +7°C° 1.7 mm 1 m/s 620 mmHg 91%
19:00 +6°C° 1.5 mm 2 m/s 620 mmHg 91%
20:00 +5°C° 1.5 mm 2 m/s 620 mmHg 91%
21:00 +5°C° 1.5 mm 2 m/s 620 mmHg 92%
22:00 +5°C° 0.7 mm 2 m/s 620 mmHg 92%
23:00 +5°C° 0.7 mm 2 m/s 620 mmHg 93%

15 Abril, Quinta-feira

Tempo Temperatura Precipitação Vento Pressão Humidade
00:00 +5°C° 0.7 mm 2 m/s 619 mmHg 93%
01:00 +5°C° 0.4 mm 2 m/s 619 mmHg 92%
02:00 +4°C° 0.4 mm 3 m/s 619 mmHg 92%
03:00 +4°C° 0.4 mm 3 m/s 618 mmHg 91%
04:00 +3°C° 3.1 mm 3 m/s 618 mmHg 92%
05:00 +3°C° 3.1 mm 3 m/s 618 mmHg 94%
06:00 +3°C° 3.1 mm 3 m/s 618 mmHg 95%
07:00 +4°C° 3.4 mm 2 m/s 618 mmHg 94%
08:00 +4°C° 3.4 mm 2 m/s 618 mmHg 94%
09:00 +4°C° 3.4 mm 2 m/s 618 mmHg 93%
10:00 +4°C° 2.2 mm 2 m/s 618 mmHg 92%
11:00 +3°C° 2.2 mm 2 m/s 618 mmHg 90%
12:00 +3°C° 2.2 mm 2 m/s 618 mmHg 89%
13:00 +3°C° 1.5 mm 2 m/s 618 mmHg 89%
14:00 +3°C° 1.5 mm 2 m/s 618 mmHg 89%
15:00 +3°C° 1.5 mm 2 m/s 618 mmHg 89%
16:00 +3°C° 1.7 mm 2 m/s 618 mmHg 89%
17:00 +2°C° 1.7 mm 2 m/s 618 mmHg 89%
18:00 +2°C° 1.7 mm 2 m/s 618 mmHg 89%
19:00 +3°C° 0.5 mm 2 m/s 618 mmHg 89%
20:00 +3°C° 0.5 mm 2 m/s 619 mmHg 88%
21:00 +3°C° 0.5 mm 2 m/s 619 mmHg 88%
22:00 +3°C° 0.1 mm 2 m/s 619 mmHg 88%
23:00 +4°C° 0.1 mm 1 m/s 619 mmHg 88%

16 Abril, Sexta-feira

Tempo Temperatura Precipitação Vento Pressão Humidade
00:00 +4°C° 0.1 mm 1 m/s 619 mmHg 88%
01:00 +4°C° 0.1 mm 1 m/s 619 mmHg 88%
02:00 +4°C° 0.1 mm 1 m/s 619 mmHg 88%
03:00 +4°C° 0.1 mm 1 m/s 619 mmHg 88%
04:00 +4°C° 0.1 mm 1 m/s 619 mmHg 89%
05:00 +4°C° 0.1 mm 1 m/s 619 mmHg 89%
06:00 +4°C° 0.1 mm 1 m/s 619 mmHg 89%
07:00 +5°C° 0 mm 1 m/s 620 mmHg 83%
08:00 +6°C° 0 mm 1 m/s 620 mmHg 77%
09:00 +7°C° 0 mm 1 m/s 620 mmHg 71%
10:00 +8°C° 0 mm 1 m/s 621 mmHg 67%
11:00 +8°C° 0 mm 2 m/s 621 mmHg 62%
12:00 +9°C° 0 mm 2 m/s 621 mmHg 58%
13:00 +9°C° 0.1 mm 3 m/s 621 mmHg 58%
14:00 +9°C° 0.1 mm 3 m/s 621 mmHg 58%
15:00 +9°C° 0.1 mm 3 m/s 621 mmHg 59%
16:00 +9°C° 0.1 mm 3 m/s 621 mmHg 62%
17:00 +8°C° 0.1 mm 3 m/s 620 mmHg 65%
18:00 +8°C° 0.1 mm 3 m/s 620 mmHg 68%
19:00 +7°C° 0 mm 3 m/s 620 mmHg 71%
20:00 +7°C° 0 mm 3 m/s 620 mmHg 73%
21:00 +6°C° 0 mm 2 m/s 620 mmHg 76%
22:00 +6°C° 0.2 mm 2 m/s 620 mmHg 78%
23:00 +6°C° 0.2 mm 2 m/s 620 mmHg 80%

17 Abril, Sábado

Tempo Temperatura Precipitação Vento Pressão Humidade
00:00 +6°C° 0.2 mm 2 m/s 619 mmHg 82%
01:00 +5°C° 0.4 mm 3 m/s 619 mmHg 83%
02:00 +5°C° 0.4 mm 3 m/s 619 mmHg 83%
03:00 +5°C° 0.4 mm 3 m/s 619 mmHg 84%
04:00 +5°C° 0.1 mm 2 m/s 619 mmHg 83%
05:00 +5°C° 0.1 mm 2 m/s 619 mmHg 82%
06:00 +5°C° 0.1 mm 2 m/s 619 mmHg 82%
07:00 +5°C° 0.1 mm 2 m/s 619 mmHg 76%
08:00 +6°C° 0.1 mm 2 m/s 620 mmHg 71%
09:00 +5°C° 0.1 mm 3 m/s 620 mmHg 66%
10:00 +7°C° 0.1 mm 3 m/s 621 mmHg 59%
11:00 +8°C° 0.1 mm 3 m/s 621 mmHg 52%
12:00 +8°C° 0.1 mm 4 m/s 621 mmHg 45%
13:00 +8°C° 0 mm 4 m/s 621 mmHg 42%
14:00 +8°C° 0 mm 4 m/s 621 mmHg 39%
15:00 +9°C° 0 mm 3 m/s 622 mmHg 36%
16:00 +8°C° 0 mm 3 m/s 622 mmHg 37%
17:00 +8°C° 0 mm 3 m/s 622 mmHg 37%
18:00 +7°C° 0 mm 2 m/s 622 mmHg 38%
19:00 +6°C° 0 mm 2 m/s 623 mmHg 43%
20:00 +6°C° 0 mm 1 m/s 623 mmHg 48%
21:00 +5°C° 0 mm 1 m/s 623 mmHg 53%
22:00 +5°C° 0 mm 1 m/s 623 mmHg 54%
23:00 +4°C° 0 mm 1 m/s 623 mmHg 56%
Mostrar mais